SAPPHIRE

Last updated on Wed Jun 28 2023 00:03:42 GMT+0000 (Coordinated Universal Time)

1 39088U 13009C 23178.50101013 .00000194 00000+0 83953-4 0 9998 2 39088 98.4148 9.6390 0010266 238.2108 121.8077 14.34468232540901
UTC large
Height (km)
Speed (km/s)
/
Latitude / Longitude
Inclination (degrees)
Orbital Period (minutes)
Azimuth
Elevation
Range (km)
Doppler Factor

Next 0 passes for location: London (51.5072 / 0.1276)

Sorry there are no passes over London.
SAPPHIRE